KPDX

Portland International Airport

Airport
ICAO code
KPDX
Summary
ICAO Region
NAM
ICAO Territory
Location

Portland, Oregon,

Coordinates
45° 35' 17" N , 122° 35' 47" W
KCC
Airport BS
Bird Strike
Metar
KPDX 151653Z 28005KT 10SM OVC050 11/04 A3031 RMK AO2 SLP262 T01110039

Description

Portland International Airport is located on the south side of the Columbia River within the current city limits of Portland in Multnomah County, six miles by air northeast of downtown Portland. Portland International Airport is often referred to by its IATA airport code, PDX.

Climatology

Oceanic/Dry-summer subtropical ”Mediterranean" climate (Köppen climate classification Csb) - characterized by warm, dry summers and mild winters.

Runways

Designator Length Width Surface Rops
3/21 2134 46 ASP Yes/Yes
10L/28R 2438 46 ASP Yes/Yes
10R/28L 3353 46 ASP Yes/Yes

Airport map

Aerial View

SKYbrary Partners:

Safety knowledge contributed by: